Voltar ao catálogo

AMAZONIA 1

AtivoCiênciaSSO
NORAD 47699·PAYLOAD·🇧🇷 Brazil

Lançado Feb 28, 2021 de Satish Dhawan Space Centre

Loading…

Próximas Passagens (próximas 24 horas)

TLE

AtualizadoSource: Space-Track

Época: Sep 14, 2026, 11:09 UTC

1 47699U 21015A   26257.46464699  .00000125  00000-0  52602-4 0  9991
2 47699  98.4241 328.8349 0001912 303.2703  56.8303 14.40846046291502

Acompanhe AMAZONIA 1 em tempo real com AllMySat

Download on the App Store